Retour au catalogue

USA 366

ActifMilitaireVLEO
NORAD 59826·PAYLOAD·🇺🇸 United States

Lancé May 22, 2024 depuis Vandenberg Space Force Base

Loading…

Prochains Passages (prochaines 24 heures)

TLE

PériméSource: Mike McCants

Époque: Aug 25, 2026, 20:20 UTC

1 59826U 24096N   26237.84743998 0.00000000  00000-0  00000-0 0    06
2 59826  70.0170 137.0430 0003000  49.3246 310.6753 14.96713175    05

Suivez USA 366 en temps réel avec AllMySat

Download on the App Store